Home   Weather   Foochow   Past weeks

Flag for China Past Weather in Foochow, Fujian, China — Yesterday and Last 2 Weeks

Now
43 °F

Light rain. Fog.


Feels Like: 36 °F
Forecast: 41 / 54 °F
Wind: 13 mph from Northeast

Location: Fuzhou Airport

Current Time: Feb 24, 2017 at 2:35:06 pm

Latest Report: Feb 24, 2017 at 2:00 pm


Visibility: 3 mi

Pressure: 30.27 "Hg

Humidity: 93%

Dew Point: 41 °F

Location of FoochowLocation

Past Weather in Foochow — Graph

°F

Foochow Temperature Yesterday

Maximum temperature yesterday: 55 °F (at 12:00 am)
Minimum temperature yesterday: 46 °F (at 7:00 pm)
Average temperature yesterday: 50 °F

High & Low Weather Summary for the Past Weeks

 TemperatureHumidityPressure
High70 °F (Feb 17, 1:00 pm)100% (Feb 17, 4:00 am)30.54 "Hg (Feb 17, 4:00 am)
Low43 °F (Feb 12, 3:00 am)38% (Feb 11, 12:00 pm)29.89 "Hg (Feb 22, 3:00 pm)
Average54 °F74%30.25 "Hg
* Reported Feb 9 1:00 pm — Feb 24 1:00 pm, Foochow, Weather by CustomWeather, © 2017

Note: Actual official high and low records may vary slightly from our data, if they occured in-between our weather recording intervals... More about our weather records

Advertising

Foochow Weather History for the Previous 24 Hours

Scroll right to see more
 ConditionsComfort  
Time TempWeatherWind HumidityBarometerVisibility
1:00 pm
Fri, Feb 24
43 °FLight rain. Fog.6 mph93%30.30 "Hg2 mi
12:00 pm43 °FLight rain. Fog.6 mph93%30.33 "Hg3 mi
11:00 am43 °FLight rain. Fog.8 mph87%30.33 "Hg2 mi
10:00 am43 °FLight rain. Fog.8 mph93%30.36 "Hg2 mi
9:00 am43 °FLight rain. Fog.8 mph87%30.39 "Hg3 mi
8:00 am43 °FLight rain. Partly sunny.10 mph87%30.33 "Hg4 mi
7:00 am43 °FPartly sunny.15 mph81%30.30 "Hg4 mi
6:00 am45 °FLight rain. Passing clouds.15 mph81%30.27 "Hg4 mi
5:00 am45 °FLight rain. Passing clouds.17 mph81%30.27 "Hg4 mi
4:00 am46 °FPassing clouds.15 mph71%30.27 "HgN/A
3:00 am46 °FPassing clouds.17 mph76%30.27 "HgN/A
2:00 am46 °FPassing clouds.20 mph76%30.30 "Hg6 mi
1:00 am46 °FPassing clouds.15 mph82%30.30 "Hg5 mi
12:00 am46 °FOvercast.15 mph82%30.30 "HgN/A
11:00 pm
Thu, Feb 23
46 °FMostly cloudy.17 mph87%30.30 "HgN/A
10:00 pm46 °FMostly cloudy.17 mph87%30.30 "HgN/A
9:00 pm46 °FLight rain. Mostly cloudy.20 mph87%30.30 "HgN/A
8:00 pm46 °FLight rain. Mostly cloudy.20 mph87%30.27 "HgN/A
7:00 pm46 °FLight rain. Mostly cloudy.20 mph87%30.27 "HgN/A
6:00 pm48 °FLight rain. Mostly cloudy.20 mph87%30.24 "HgN/A
5:00 pm48 °FLight rain. Mostly cloudy.20 mph87%30.21 "HgN/A
4:00 pm48 °FLight rain. Fog.17 mph94%30.18 "Hg3 mi
3:00 pm48 °FLight rain. Fog.17 mph94%30.18 "Hg2 mi
2:00 pm48 °FLight rain. Mostly cloudy.20 mph94%30.15 "Hg4 mi
Weather by CustomWeather, © 2017

See weather overviewHow to use our weather pages